| time (UTC) | temp C | wind direction | speed KPH | gust KPH | rain 1hr cm | rain 24hr cm | rain mn cm | humidity % | barometer mb |
| 20260504214530 | 23 | 0 | 0.0 | 8.0 | 0.00 | 0.00 | 0.00 | 24 | 1010.2 |
| 20260504213028 | 23 | 0 | 0.0 | 8.0 | 0.00 | 0.00 | 0.00 | 23 | 1010.1 |
| 20260504211530 | 23 | 152 | 1.6 | 12.9 | 0.00 | 0.00 | 0.00 | 22 | 1010.1 |
| 20260504210043 | 23 | 302 | 0.0 | 12.9 | 0.00 | 0.00 | 0.00 | 32 | 1010.4 |
| 20260504204528 | 23 | 295 | 0.0 | 9.7 | 0.00 | 0.00 | 0.00 | 22 | 1010.1 |
| 20260504203032 | 23 | 122 | 1.6 | 8.0 | 0.00 | 0.00 | 0.00 | 22 | 1010.2 |
| 20260504201529 | 23 | 325 | 1.6 | 11.3 | 0.00 | 0.00 | 0.00 | 21 | 1010.1 |
| 20260504200029 | 23 | 286 | 3.2 | 9.7 | 0.00 | 0.00 | 0.00 | 31 | 1010.0 |
| 20260504194542 | 24 | 0 | 0.0 | 14.5 | 0.00 | 0.00 | 0.00 | 32 | 1010.4 |
| 20260504193030 | 23 | 294 | 1.6 | 8.0 | 0.00 | 0.00 | 0.00 | 31 | 1010.7 |
| 20260504191540 | 24 | 0 | 1.6 | 11.3 | 0.00 | 0.00 | 0.00 | 33 | 1010.8 |
| 20260504190032 | 23 | 305 | 0.0 | 9.7 | 0.00 | 0.00 | 0.00 | 32 | 1010.9 |
| 20260504184536 | 23 | 0 | 0.0 | 12.9 | 0.00 | 0.00 | 0.00 | 33 | 1011.1 |
| 20260504183030 | 23 | 198 | 1.6 | 14.5 | 0.00 | 0.00 | 0.00 | 33 | 1011.4 |
| 20260504181528 | 23 | 300 | 0.0 | 12.9 | 0.00 | 0.00 | 0.00 | 36 | 1011.6 |
| 20260504180042 | 23 | 0 | 1.6 | 9.7 | 0.00 | 0.00 | 0.00 | 26 | 1011.7 |
| 20260504174530 | 22 | 183 | 3.2 | 14.5 | 0.00 | 0.00 | 0.00 | 24 | 1011.8 |
| 20260504173029 | 22 | 177 | 1.6 | 14.5 | 0.00 | 0.00 | 0.00 | 35 | 1012.0 |
| 20260504171529 | 22 | 257 | 0.0 | 11.3 | 0.00 | 0.00 | 0.00 | 26 | 1012.0 |
| 20260504081531 | 3 | 0 | 0.0 | 0.0 | 0.00 | 0.00 | 0.00 | 72 | 1014.8 |
| 20260504044531 | 7 | 0 | 0.0 | 0.0 | 0.00 | 0.00 | 0.00 | 52 | 1014.4 |
| 20260504043031 | 7 | 0 | 0.0 | 0.0 | 0.00 | 0.00 | 0.00 | 51 | 1014.2 |
| 20260504041529 | 7 | 0 | 0.0 | 1.6 | 0.00 | 0.00 | 0.00 | 50 | 1014.0 |
| 20260504040032 | 7 | 0 | 0.0 | 0.0 | 0.00 | 0.00 | 0.00 | 50 | 1013.8 |
| 20260504034540 | 7 | 0 | 0.0 | 0.0 | 0.00 | 0.00 | 0.00 | 49 | 1013.8 |
| 20260504033031 | 8 | 0 | 0.0 | 1.6 | 0.00 | 0.00 | 0.00 | 48 | 1013.7 |
| 20260504031535 | 8 | 0 | 0.0 | 0.0 | 0.00 | 0.00 | 0.00 | 48 | 1013.6 |
| 20260504030038 | 8 | 0 | 0.0 | 1.6 | 0.00 | 0.00 | 0.00 | 47 | 1013.4 |
| 20260504024533 | 8 | 0 | 0.0 | 0.0 | 0.00 | 0.00 | 0.00 | 48 | 1013.5 |
| 20260504023031 | 8 | 0 | 0.0 | 0.0 | 0.00 | 0.00 | 0.00 | 46 | 1013.6 |
| 20260504021532 | 9 | 0 | 0.0 | 1.6 | 0.00 | 0.00 | 0.00 | 44 | 1013.6 |
| 20260504020035 | 9 | 0 | 0.0 | 1.6 | 0.00 | 0.00 | 0.00 | 43 | 1013.5 |
| 20260504014532 | 9 | 0 | 0.0 | 0.0 | 0.00 | 0.00 | 0.00 | 41 | 1013.5 |
| 20260504013031 | 10 | 0 | 0.0 | 1.6 | 0.00 | 0.00 | 0.00 | 41 | 1013.4 |
| 20260504011530 | 10 | 0 | 0.0 | 0.0 | 0.00 | 0.00 | 0.00 | 40 | 1013.3 |
| 20260504010038 | 10 | 0 | 0.0 | 0.0 | 0.00 | 0.00 | 0.00 | 38 | 1013.0 |
| 20260504004531 | 10 | 0 | 0.0 | 0.0 | 0.00 | 0.00 | 0.00 | 47 | 1012.8 |
| 20260504003029 | 11 | 0 | 0.0 | 0.0 | 0.00 | 0.00 | 0.00 | 34 | 1012.7 |
| 20260504001529 | 11 | 0 | 0.0 | 0.0 | 0.00 | 0.00 | 0.00 | 32 | 1012.5 |
| 20260504000034 | 12 | 0 | 0.0 | 0.0 | 0.00 | 0.00 | 0.00 | 30 | 1012.3 |
| 20260503234533 | 13 | 214 | 0.0 | 3.2 | 0.00 | 0.00 | 0.00 | 28 | 1012.0 |
| 20260503233033 | 13 | 0 | 0.0 | 6.4 | 0.00 | 0.00 | 0.00 | 26 | 1012.0 |
| 20260503231545 | 14 | 333 | 0.0 | 1.6 | 0.00 | 0.00 | 0.00 | 36 | 1011.9 |
| 20260503230034 | 15 | 0 | 0.0 | 12.9 | 0.00 | 0.00 | 0.00 | 24 | 1011.9 |
| 20260503224532 | 15 | 289 | 6.4 | 19.3 | 0.00 | 0.00 | 0.00 | 32 | 1011.8 |
| 20260503223035 | 15 | 298 | 3.2 | 17.7 | 0.00 | 0.00 | 0.00 | 22 | 1011.6 |
| 20260503221535 | 15 | 255 | 4.8 | 12.9 | 0.00 | 0.00 | 0.00 | 21 | 1011.6 |
| 20260503220037 | 15 | 314 | 1.6 | 11.3 | 0.00 | 0.00 | 0.00 | 31 | 1011.7 |